DW2149 Weather Reports


Display with metric or nautical units.
time (UTC)temp
F
wind
direction
speed
MPH
gust
MPH
rain 1hr
in
rain 24hr
in
rain mn
in
humidity
%
barometer
mb
20260505002927 47 321 0.0 0.0 0.06 0.35 0.35 90 1012.5
20260505002532 47 321 0.0 0.0 0.06 0.35 0.35 90 1012.5
20260505002321 47 321 0.0 0.0 0.06 0.34 0.35 90 1012.6
20260505002108 47 321 0.0 0.0 0.00 0.34 0.33 90 1012.7
20260505001903 47 321 0.0 0.0 0.00 0.34 0.33 90 1012.5
20260505001507 47 321 0.0 0.0 0.00 0.34 0.33 90 1012.6
20260505001113 47 321 0.0 0.0 0.00 0.33 0.33 90 1012.6
20260505000721 47 321 0.0 2.0 0.00 0.33 0.33 90 1012.6
20260505000517 47 318 0.0 2.0 0.00 0.33 0.33 90 1012.5
20260505000315 47 318 0.0 2.0 0.00 0.33 0.33 90 1012.5
20260505000104 47 317 0.0 2.0 0.00 0.33 0.33 90 1012.5
20260504235706 47 327 0.0 1.0 0.00 0.33 0.33 90 1012.5
20260504235311 47 328 0.0 3.0 0.00 0.33 0.33 90 1012.5
20260504235108 47 327 0.0 2.0 0.00 0.33 0.33 90 1012.5
20260504234859 47 328 0.0 0.0 0.00 0.32 0.32 90 1012.5
20260504234656 47 328 0.0 0.0 0.00 0.32 0.32 90 1012.5
20260504234447 47 329 0.0 0.0 0.04 0.32 0.32 90 1012.5
20260504234237 47 329 0.0 0.0 0.05 0.32 0.32 90 1012.5
20260504234024 47 329 0.0 0.0 0.06 0.32 0.32 90 1012.4
20260504233814 47 329 0.0 1.0 0.06 0.32 0.32 90 1012.5
20260504233602 47 329 0.0 1.0 0.06 0.32 0.32 90 1012.4
20260504233356 47 328 0.0 0.0 0.06 0.32 0.32 90 1012.4
20260504233153 47 328 0.0 3.0 0.06 0.32 0.32 90 1012.4
20260504232949 47 306 0.0 1.0 0.06 0.31 0.31 90 1012.3
20260504232602 47 306 0.0 0.0 0.00 0.31 0.31 90 1012.4
20260504232354 47 306 0.0 1.0 0.00 0.31 0.31 89 1012.4
20260504232151 47 306 0.0 1.0 0.00 0.31 0.31 89 1012.6
20260504231948 47 305 0.0 0.0 0.00 0.30 0.29 89 1012.6
20260504231737 47 305 0.0 2.0 0.00 0.30 0.29 89 1012.6
20260504231350 47 305 0.0 2.0 0.00 0.30 0.29 89 1012.6
20260504230957 47 306 0.0 0.0 0.00 0.30 0.29 89 1012.5
20260504230746 47 306 0.0 0.0 0.00 0.30 0.29 89 1012.4
20260504230544 47 306 0.0 0.0 0.00 0.30 0.29 89 1012.5
20260504230334 47 306 0.0 0.0 0.00 0.30 0.29 89 1012.5
20260504230129 47 306 0.0 3.0 0.00 0.30 0.29 89 1012.5
20260504225924 47 212 0.0 0.0 0.00 0.30 0.29 89 1012.5
20260504225713 47 212 0.0 1.0 0.04 0.29 0.29 89 1012.5
20260504225511 47 211 0.0 0.0 0.04 0.29 0.29 89 1012.6
20260504224936 47 211 0.0 1.0 0.05 0.29 0.29 89 1012.6
20260504224730 47 211 0.0 0.0 0.05 0.29 0.29 89 1012.5
20260504224343 47 211 0.0 1.0 0.05 0.29 0.29 89 1012.5
20260504223809 47 211 0.0 0.0 0.05 0.28 0.28 90 1012.5
20260504223558 47 211 0.0 2.0 0.05 0.28 0.28 90 1012.4
20260504223348 47 212 0.0 0.0 0.05 0.28 0.28 89 1012.4
20260504222950 47 212 0.0 0.0 0.05 0.28 0.28 89 1012.5
20260504222740 47 211 0.0 0.0 0.05 0.27 0.26 90 1012.5
20260504222530 47 212 0.0 0.0 0.05 0.27 0.26 89 1012.6
20260504222138 48 212 0.0 0.0 0.05 0.27 0.26 90 1012.6
20260504221932 47 211 0.0 0.0 0.05 0.27 0.26 89 1012.6
20260504221543 48 212 0.0 1.0 0.05 0.26 0.26 89 1012.6
20260504221341 48 211 0.0 0.0 0.00 0.26 0.26 89 1012.6
20260504221136 48 211 0.0 2.0 0.00 0.26 0.26 89 1012.6
20260504220926 48 211 0.0 0.0 0.00 0.26 0.26 89 1012.5
20260504220536 48 211 0.0 0.0 0.00 0.26 0.26 89 1012.5
20260504220335 48 211 0.0 0.0 0.00 0.26 0.26 89 1012.6
20260504220128 48 211 0.0 0.0 0.00 0.25 0.25 89 1012.6
20260504215918 48 211 0.0 3.0 0.00 0.25 0.25 89 1012.6
20260504215705 48 211 0.0 3.0 0.00 0.25 0.25 89 1012.6
20260504215501 48 211 0.0 3.0 0.00 0.25 0.25 89 1012.6
20260504215248 48 211 0.0 2.0 0.00 0.25 0.25 89 1012.6
20260504215041 48 211 0.0 0.0 0.00 0.25 0.25 89 1012.7
20260504214835 48 211 0.0 0.0 0.00 0.25 0.25 89 1012.7
20260504214623 48 211 0.0 1.0 0.00 0.25 0.25 89 1012.8
20260504214414 48 211 0.0 0.0 0.00 0.25 0.25 89 1012.8
20260504214212 48 211 0.0 0.0 0.00 0.25 0.25 89 1012.8
20260504214011 48 211 0.0 0.0 0.00 0.25 0.25 89 1012.8
20260504213804 48 211 0.0 0.0 0.00 0.24 0.24 89 1012.9
20260504213554 48 211 0.0 2.0 0.00 0.24 0.24 89 1012.8
20260504213346 48 211 0.0 2.0 0.00 0.24 0.24 89 1012.8
20260504212951 48 211 0.0 2.0 0.00 0.24 0.24 89 1012.8
20260504212741 48 211 0.0 1.0 0.00 0.24 0.24 89 1012.8
20260504212533 48 211 0.0 1.0 0.00 0.24 0.24 89 1012.8
20260504212319 48 211 0.0 0.0 0.00 0.24 0.24 90 1012.8
20260504212107 48 211 0.0 3.0 0.00 0.24 0.24 90 1012.8
20260504211900 48 211 0.0 2.0 0.00 0.24 0.24 90 1012.8
20260504211649 48 211 0.0 2.0 0.00 0.24 0.24 90 1012.8
20260504211439 48 211 0.0 2.0 0.00 0.24 0.24 90 1012.8
20260504211233 48 211 0.0 2.0 0.00 0.24 0.24 90 1012.8
20260504211023 48 211 0.0 1.0 0.00 0.24 0.24 90 1012.8
20260504210812 48 211 0.0 2.0 0.00 0.24 0.24 90 1012.7
20260504210425 48 211 0.0 2.0 0.00 0.24 0.24 90 1012.8
20260504210220 48 211 0.0 0.0 0.00 0.24 0.24 90 1012.7
20260504210013 48 211 0.0 0.0 0.00 0.24 0.24 90 1012.8
20260504205800 48 211 0.0 0.0 0.00 0.24 0.24 90 1012.7
20260504205559 48 211 0.0 2.0 0.00 0.24 0.24 90 1012.7
20260504205355 48 211 0.0 2.0 0.00 0.24 0.24 90 1012.6
20260504205153 48 211 0.0 2.0 0.00 0.24 0.24 90 1012.7
20260504204942 48 211 0.0 2.0 0.00 0.24 0.24 90 1012.7
20260504204550 48 211 0.0 3.0 0.00 0.24 0.24 90 1012.6
20260504204338 48 211 0.0 3.0 0.00 0.24 0.24 90 1012.6
20260504204128 48 211 0.0 1.0 0.00 0.24 0.24 89 1012.6
20260504203926 48 211 0.0 2.0 0.00 0.24 0.24 89 1012.6
20260504203722 48 211 0.0 1.0 0.00 0.24 0.24 89 1012.6
20260504203519 48 211 0.0 0.0 0.00 0.24 0.24 89 1012.6
20260504203313 48 211 0.0 1.0 0.00 0.24 0.24 89 1012.6
20260504202924 47 211 0.0 3.0 0.00 0.24 0.24 89 1012.6
20260504202721 47 211 0.0 3.0 0.00 0.24 0.24 89 1012.7
20260504202512 47 211 0.0 3.0 0.00 0.24 0.24 89 1012.8
20260504202120 47 211 0.0 3.0 0.00 0.23 0.23 89 1012.7
20260504201915 47 211 0.0 3.0 0.00 0.23 0.23 89 1012.7
20260504201713 47 211 0.0 3.0 0.00 0.23 0.23 89 1012.7
20260504201501 47 211 1.0 3.0 0.00 0.23 0.23 88 1012.6
20260504201112 47 211 0.0 3.0 0.00 0.23 0.23 88 1012.7
20260504200911 47 211 0.0 3.0 0.00 0.23 0.23 88 1012.6
20260504200704 47 212 0.0 2.0 0.00 0.23 0.23 88 1012.7
20260504200501 47 212 0.0 0.0 0.00 0.23 0.23 88 1012.7
20260504200258 47 212 0.0 0.0 0.00 0.23 0.23 88 1012.7
20260504200055 47 212 0.0 0.0 0.04 0.23 0.23 88 1012.7
20260504195848 47 212 0.0 0.0 0.04 0.23 0.23 88 1012.7
20260504195642 47 212 0.0 0.0 0.04 0.23 0.23 88 1012.7
20260504195440 47 212 0.0 0.0 0.04 0.23 0.23 88 1012.7
20260504195235 47 212 0.0 0.0 0.04 0.23 0.23 88 1012.6
20260504195033 47 212 0.0 0.0 0.04 0.23 0.23 88 1012.6
20260504194642 47 212 0.0 2.0 0.04 0.23 0.23 88 1012.6
20260504194246 47 212 0.0 2.0 0.05 0.22 0.22 88 1012.6
20260504194041 47 212 0.0 2.0 0.05 0.22 0.22 88 1012.6
20260504193652 47 212 0.0 0.0 0.08 0.22 0.22 88 1012.6
20260504192935 47 212 0.0 2.0 0.05 0.21 0.21 88 1012.6
20260504192730 47 212 0.0 0.0 0.05 0.21 0.21 88 1012.6
20260504192520 47 212 0.0 0.0 0.05 0.21 0.21 88 1012.5
20260504192125 47 211 0.0 0.0 0.05 0.20 0.20 88 1012.5
20260504191916 47 211 0.0 2.0 0.06 0.20 0.20 88 1012.4
20260504191706 47 211 0.0 1.0 0.07 0.20 0.20 88 1012.4
20260504191455 47 212 0.0 1.0 0.10 0.20 0.20 88 1012.4
20260504191249 47 212 0.0 1.0 0.14 0.20 0.20 88 1012.3
20260504190707 47 212 0.0 0.0 0.19 0.19 0.19 88 1012.4
20260504190501 47 211 0.0 0.0 0.16 0.18 0.18 88 1012.4
20260504190106 47 211 0.0 0.0 0.06 0.17 0.16 88 1012.3
20260504185902 47 211 0.0 2.0 0.06 0.16 0.16 88 1012.2
20260504185652 47 212 0.0 2.0 0.05 0.16 0.16 88 1012.3
20260504185439 47 212 0.0 0.0 0.05 0.16 0.16 88 1012.3
20260504185235 47 212 0.0 0.0 0.05 0.16 0.16 88 1012.3
20260504185031 47 212 0.0 0.0 0.05 0.16 0.16 88 1012.2
20260504184818 47 212 0.0 0.0 0.00 0.15 0.14 88 1012.2
20260504184611 47 212 0.0 1.0 0.00 0.15 0.14 88 1012.1
20260504184407 47 212 0.0 0.0 0.00 0.15 0.14 88 1012.1
20260504184018 47 212 0.0 0.0 0.00 0.15 0.14 88 1012.1
20260504183623 47 212 0.0 0.0 0.00 0.14 0.14 88 1012.1
20260504183418 47 212 0.0 0.0 0.00 0.14 0.14 88 1012.1
20260504183208 47 212 0.0 0.0 0.00 0.14 0.14 88 1012.1
20260504182956 47 212 0.0 0.0 0.00 0.14 0.14 88 1012.0
20260504182558 47 212 0.0 0.0 0.00 0.14 0.14 88 1012.0
20260504182357 47 211 0.0 1.0 0.00 0.14 0.14 88 1012.1
20260504182148 47 211 0.0 0.0 0.00 0.14 0.14 88 1012.0
20260504181946 47 211 0.0 0.0 0.00 0.14 0.14 88 1012.0
20260504181735 47 211 0.0 2.0 0.00 0.14 0.14 88 1012.0
20260504181528 47 211 0.0 2.0 0.00 0.14 0.14 88 1011.9
20260504181319 47 211 0.0 0.0 0.00 0.14 0.14 88 1011.9
20260504181115 47 211 0.0 0.0 0.00 0.14 0.14 88 1011.9
20260504180912 47 211 0.0 0.0 0.00 0.14 0.14 88 1011.9
20260504180709 47 211 0.0 1.0 0.00 0.14 0.14 88 1011.9
20260504180322 47 211 0.0 1.0 0.00 0.14 0.14 88 1011.9
20260504180116 47 211 0.0 0.0 0.00 0.14 0.14 88 1011.9
20260504175906 47 211 0.0 0.0 0.00 0.14 0.14 88 1011.9
20260504175659 47 211 0.0 0.0 0.00 0.14 0.14 88 1011.9
20260504175451 47 211 0.0 1.0 0.00 0.14 0.14 88 1012.0
20260504175247 47 211 0.0 0.0 0.00 0.14 0.14 88 1012.0
20260504175039 47 211 0.0 0.0 0.00 0.14 0.14 88 1011.9
20260504174831 47 211 0.0 1.0 0.00 0.14 0.14 88 1011.9
20260504174440 47 211 0.0 1.0 0.00 0.14 0.14 88 1011.9
20260504174228 47 211 0.0 3.0 0.00 0.14 0.14 88 1011.9
20260504174018 47 211 0.0 1.0 0.00 0.14 0.14 88 1011.8
20260504173814 47 211 0.0 2.0 0.00 0.14 0.14 88 1011.8
20260504173422 47 210 0.0 2.0 0.00 0.14 0.14 88 1011.8
20260504173210 47 209 0.0 0.0 0.00 0.14 0.14 88 1011.7
20260504173001 47 209 0.0 2.0 0.00 0.14 0.14 88 1011.7
20260504172611 47 208 0.0 2.0 0.00 0.14 0.14 88 1011.6
20260504172409 47 208 0.0 2.0 0.00 0.14 0.14 88 1011.6
20260504172203 47 207 0.0 0.0 0.00 0.14 0.14 88 1011.6
20260504171956 47 207 0.0 0.0 0.00 0.14 0.14 88 1011.5
20260504171750 47 207 0.0 1.0 0.00 0.14 0.14 88 1011.5
20260504171539 47 207 0.0 1.0 0.00 0.14 0.14 88 1011.4
20260504171328 47 207 0.0 0.0 0.00 0.14 0.14 88 1011.4
20260504171120 47 207 0.0 0.0 0.00 0.14 0.14 88 1011.4
20260504170915 47 207 0.0 0.0 0.00 0.14 0.14 88 1011.4
20260504170712 47 207 0.0 0.0 0.00 0.14 0.14 88 1011.3
20260504170504 47 207 0.0 0.0 0.00 0.14 0.14 88 1011.3
20260504160432 47 38 0.0 0.0 0.00 0.14 0.14 87 1011.0
20260504160222 47 38 0.0 0.0 0.00 0.14 0.14 87 1011.0
20260504151049 46 38 0.0 0.0 0.00 0.13 0.13 86 1011.0
20260504150848 46 38 0.0 0.0 0.00 0.13 0.13 86 1011.0
20260504150645 46 38 0.0 0.0 0.00 0.13 0.13 86 1011.0
20260504150434 46 38 0.0 0.0 0.00 0.13 0.13 86 1011.0
20260504141307 47 38 0.0 0.0 0.00 0.13 0.13 86 1011.1
20260504141055 47 38 0.0 0.0 0.00 0.13 0.13 86 1011.0
20260504140843 47 38 0.0 0.0 0.00 0.13 0.13 86 1011.0
20260504140638 47 38 0.0 0.0 0.00 0.12 0.12 86 1011.0
20260504140425 47 38 0.0 0.0 0.00 0.12 0.12 86 1011.0
20260504140218 47 38 0.0 0.0 0.00 0.12 0.12 86 1011.0
20260504130610 47 38 0.0 0.0 0.00 0.08 0.08 85 1010.4
20260504130358 47 38 0.0 0.0 0.00 0.08 0.08 85 1010.4
20260504130148 47 38 0.0 0.0 0.00 0.08 0.08 85 1010.4
20260504120131 47 38 0.0 0.0 0.04 0.08 0.08 83 1010.4
20260504110607 49 43 0.0 0.0 0.00 0.01 0.01 81 1010.5
20260504110401 49 43 0.0 2.0 0.00 0.01 0.01 81 1010.4
20260504110151 49 36 0.0 1.0 0.00 0.00 0.00 81 1010.3
20260504100425 50 265 0.0 0.0 0.00 0.00 0.00 81 1010.2
20260504100219 50 265 0.0 0.0 0.00 0.00 0.00 81 1010.2
20260504081844 51 299 0.0 0.0 0.00 0.00 0.00 83 1010.1
20260504081631 51 299 0.0 0.0 0.00 0.00 0.00 83 1010.2
20260504081425 51 299 0.0 0.0 0.00 0.00 0.00 83 1010.2
20260504081218 51 299 0.0 0.0 0.00 0.00 0.00 83 1010.2
20260504081015 51 299 0.0 0.0 0.00 0.00 0.00 82 1010.2
20260504080620 51 299 0.0 0.0 0.00 0.00 0.00 82 1010.2
20260504080414 51 299 0.0 0.0 0.00 0.00 0.00 82 1010.2
20260504080212 51 299 0.0 0.0 0.00 0.00 0.00 82 1010.1
20260504070255 51 299 0.0 0.0 0.00 0.00 0.00 82 1010.1
20260504060131 50 299 0.0 0.0 0.00 0.00 0.00 79 1010.4
20260504050638 53 299 0.0 0.0 0.00 0.00 0.00 74 1009.6
20260504050430 53 299 0.0 0.0 0.00 0.00 0.00 74 1009.5
20260504050220 53 299 0.0 0.0 0.00 0.00 0.00 74 1009.5
20260504050018 53 299 0.0 0.0 0.00 0.00 0.00 73 1009.4
20260504045813 54 299 0.0 0.0 0.00 0.00 0.00 73 1009.4
20260504045234 54 299 0.0 0.0 0.00 0.00 0.00 73 1009.4
20260504045032 54 299 0.0 0.0 0.00 0.00 0.00 73 1009.4
20260504044825 54 299 0.0 0.0 0.00 0.00 0.00 73 1009.4
20260504044623 54 299 0.0 0.0 0.00 0.00 0.00 73 1009.3
20260504044414 55 299 0.0 0.0 0.00 0.00 0.00 72 1009.3
20260504044210 55 299 0.0 0.0 0.00 0.00 0.00 72 1009.4
20260504044001 55 299 0.0 0.0 0.00 0.00 0.00 72 1009.3
20260504043755 55 299 0.0 0.0 0.00 0.00 0.00 72 1009.3
20260504043550 55 299 0.0 0.0 0.00 0.00 0.00 72 1009.3
20260504043339 55 299 0.0 0.0 0.00 0.00 0.00 72 1009.3
20260504043129 55 299 0.0 0.0 0.00 0.00 0.00 72 1009.2
20260504042916 56 299 0.0 0.0 0.00 0.00 0.00 72 1009.3
20260504042713 56 299 0.0 0.0 0.00 0.00 0.00 72 1009.3
20260504042502 56 299 0.0 0.0 0.00 0.00 0.00 71 1009.3
20260504042259 56 299 0.0 0.0 0.00 0.00 0.00 71 1009.3
20260504042057 56 299 0.0 0.0 0.00 0.00 0.00 71 1009.3
20260504041847 56 299 0.0 0.0 0.00 0.00 0.00 71 1009.3
20260504041637 56 299 0.0 0.0 0.00 0.00 0.00 71 1009.3
20260504041431 56 299 0.0 0.0 0.00 0.00 0.00 71 1009.2
20260504041219 56 299 0.0 0.0 0.00 0.00 0.00 71 1009.3
20260504041017 56 299 0.0 0.0 0.00 0.00 0.00 71 1009.3
20260504040813 57 299 0.0 0.0 0.00 0.00 0.00 70 1009.5
20260504040601 57 299 0.0 0.0 0.00 0.00 0.00 70 1009.5
20260504040359 57 299 0.0 0.0 0.00 0.00 0.00 70 1009.6
20260504040148 57 299 0.0 0.0 0.00 0.00 0.00 70 1009.6
20260504035940 57 299 0.0 0.0 0.00 0.00 0.00 70 1009.5
20260504035737 57 299 0.0 0.0 0.00 0.00 0.00 70 1009.5
20260504035340 57 299 0.0 0.0 0.00 0.00 0.00 70 1009.5
20260504035137 57 299 0.0 0.0 0.00 0.00 0.00 70 1009.5
20260504034927 57 299 0.0 1.0 0.00 0.00 0.00 70 1009.5
20260504034355 58 298 0.0 0.0 0.00 0.00 0.00 69 1009.5
20260504033823 58 298 0.0 0.0 0.00 0.00 0.00 69 1009.4
20260504033617 58 299 0.0 0.0 0.00 0.00 0.00 69 1009.4
20260504033413 58 298 0.0 0.0 0.00 0.00 0.00 69 1009.4
20260504033205 58 299 0.0 0.0 0.00 0.00 0.00 68 1009.3
20260504032959 58 299 0.0 0.0 0.00 0.00 0.00 68 1009.3
20260504032421 58 299 0.0 2.0 0.00 0.00 0.00 68 1009.1
20260504031840 59 298 0.0 0.0 0.00 0.00 0.00 67 1009.0
20260504031636 59 298 0.0 0.0 0.00 0.00 0.00 67 1008.9
20260504031423 59 298 0.0 0.0 0.00 0.00 0.00 67 1008.9
20260504031218 59 298 0.0 0.0 0.00 0.00 0.00 67 1008.9
20260504031006 59 298 0.0 0.0 0.00 0.00 0.00 67 1008.9
20260504030802 59 298 0.0 2.0 0.00 0.00 0.00 67 1008.9
20260504030554 59 302 0.0 0.0 0.00 0.00 0.00 67 1008.9
20260504030350 59 302 0.0 0.0 0.00 0.00 0.00 67 1008.8
20260504030148 59 302 0.0 0.0 0.00 0.00 0.00 66 1008.8
20260504025752 59 302 0.0 0.0 0.00 0.00 0.00 66 1008.8
20260504025403 60 302 0.0 0.0 0.00 0.00 0.00 66 1008.7
20260504025158 60 302 0.0 0.0 0.00 0.00 0.00 66 1008.6
20260504024954 60 302 0.0 1.0 0.00 0.00 0.00 66 1008.6
20260504024600 60 302 0.0 0.0 0.00 0.00 0.00 65 1008.5
20260504024357 60 302 0.0 2.0 0.00 0.00 0.00 65 1008.5
20260504024148 60 301 0.0 0.0 0.00 0.00 0.00 65 1008.5
20260504023755 60 301 0.0 1.0 0.00 0.00 0.00 65 1008.3
20260504023547 60 308 0.0 1.0 0.00 0.00 0.00 65 1008.3
20260504023344 60 309 0.0 1.0 0.00 0.00 0.00 65 1008.3
20260504023141 61 309 0.0 0.0 0.00 0.00 0.00 65 1008.3
20260504022938 61 309 0.0 3.0 0.00 0.00 0.00 65 1008.3
20260504022549 61 309 0.0 0.0 0.00 0.00 0.00 64 1008.2
20260504022156 61 309 0.0 0.0 0.00 0.00 0.00 64 1008.2
20260504021944 61 308 0.0 4.0 0.00 0.00 0.00 64 1008.1
20260504021733 61 228 0.0 1.0 0.00 0.00 0.00 64 1008.1
20260504021531 61 224 0.0 1.0 0.00 0.00 0.00 64 1008.1
20260504021320 61 224 0.0 0.0 0.00 0.00 0.00 64 1008.0
20260504021113 61 224 0.0 0.0 0.00 0.00 0.00 64 1008.0
20260504020901 62 224 0.0 0.0 0.00 0.00 0.00 63 1008.0
20260504020649 62 224 0.0 0.0 0.00 0.00 0.00 63 1008.0
20260504020447 62 224 0.0 0.0 0.00 0.00 0.00 63 1007.9
20260504020245 62 224 0.0 2.0 0.00 0.00 0.00 63 1007.9
20260504015855 62 225 0.0 2.0 0.00 0.00 0.00 63 1007.8
20260504015645 62 225 0.0 3.0 0.00 0.00 0.00 63 1007.8
20260504015443 62 225 0.0 5.0 0.00 0.00 0.00 63 1007.8
20260504015237 62 216 0.0 5.0 0.00 0.00 0.00 63 1007.8
20260504015028 62 216 0.0 5.0 0.00 0.00 0.00 63 1007.8
20260504014822 62 229 0.0 5.0 0.00 0.00 0.00 62 1007.8
20260504014621 63 240 0.0 5.0 0.00 0.00 0.00 62 1007.8
20260504014409 63 271 0.0 5.0 0.00 0.00 0.00 63 1007.8
20260504014202 63 271 0.0 5.0 0.00 0.00 0.00 62 1007.9
20260504013956 63 271 0.0 5.0 0.00 0.00 0.00 63 1007.8
20260504013752 63 271 0.0 5.0 0.00 0.00 0.00 63 1007.8
20260504013549 63 219 0.0 2.0 0.00 0.00 0.00 63 1007.8
20260504013335 63 214 0.0 0.0 0.00 0.00 0.00 63 1007.7
20260504013126 63 214 0.0 6.0 0.00 0.00 0.00 63 1007.8
20260504012917 63 208 0.0 6.0 0.00 0.00 0.00 63 1007.8
20260504012712 63 208 0.0 6.0 0.00 0.00 0.00 63 1007.9
20260504012502 63 208 0.0 6.0 0.00 0.00 0.00 62 1007.9
20260504012112 63 269 0.0 5.0 0.00 0.00 0.00 62 1007.9
20260504011902 63 269 1.0 5.0 0.00 0.00 0.00 62 1008.0
20260504011651 63 221 1.0 5.0 0.00 0.00 0.00 61 1008.0
20260504011448 63 205 0.0 5.0 0.00 0.00 0.00 61 1008.0
20260504010913 64 292 1.0 2.0 0.00 0.00 0.00 63 1008.1
20260504010709 64 292 1.0 0.0 0.00 0.00 0.00 62 1008.1
20260504005426 63 219 0.0 4.0 0.00 0.00 0.00 63 1008.0
20260504005224 63 273 0.0 4.0 0.00 0.00 0.00 63 1008.0
20260504005021 63 273 0.0 4.0 0.00 0.00 0.00 63 1008.0
20260504004626 63 287 1.0 0.0 0.00 0.00 0.00 63 1008.0
20260504004418 63 287 1.0 6.0 0.00 0.00 0.00 63 1008.0
20260504004214 63 286 1.0 6.0 0.00 0.00 0.00 63 1008.0
20260504004006 63 286 1.0 6.0 0.00 0.00 0.00 63 1008.0
20260504003801 63 323 0.0 5.0 0.00 0.00 0.00 64 1008.0
20260504003548 63 225 0.0 5.0 0.00 0.00 0.00 64 1007.9
20260504003346 63 225 0.0 5.0 0.00 0.00 0.00 64 1007.8
20260504003143 62 225 1.0 5.0 0.00 0.00 0.00 64 1007.8